Location: Unspecified
(52.1384°N, 8.6525°W)
Time: 11:44:37
(UTC+00:00)

XW-2F - Pass Details

Date: 19 January 2021
Orbit: 500 x 519 km, 97.5° (Epoch: 24 February)

Event Time Altitude Azimuth Distance (km) Brightness Sun altitude
Rises 06:53:31 0° 14° (NNE) 2,657 ? -14.7°
Reaches altitude 10° 06:55:37 10° 15° (NNE) 1,766 ? -14.3°
Maximum altitude 06:59:26 84° 102° (ESE) 531 ? -13.8°
Drops below altitude 10° 07:03:14 10° 193° (SSW) 1,754 ? -13.2°
Sets 07:05:20 0° 194° (SSW) 2,637 ? -12.9°
